Home > Weather > Corfu > Past weeks

Flag for Greece Weather for the Past 2 Weeks in Corfu, Greece

Now
59 °F

Passing clouds.


Feels Like: 60 °F
Forecast: 54 / 70 °F
Wind: 3 mph from Southwest

Location: Kerkyra Airport

Current Time: May 5, 2016 at 2:18:34 AM

Latest Report: May 5, 2016 at 1:50 AM


Visibility: N/A

Pressure: 29.83 "Hg

Humidity: 82%

Dew Point: 54 °F

Location of CorfuLocation

Historic Weather in Corfu — Graph

°F

Corfu Temperature Yesterday

Maximum temperature yesterday: 70 °F (at 2:50 PM)
Minimum temperature yesterday: 55 °F (at 6:50 AM)
Average temperature yesterday: 63 °F

High & Low Weather Summary for the Past Weeks

 TemperatureHumidityPressure
High75 °F (Apr 20, 2:50 PM)100% (Apr 24, 6:50 AM)30.18 "Hg (Apr 24, 6:50 AM)
Low45 °F (Apr 27, 5:50 AM)38% (Apr 21, 12:50 PM)29.53 "Hg (Apr 25, 7:50 PM)
Average62 °F75%29.87 "Hg
* Reported Apr 19 11:20 PM — May 4 11:20 PM, Corfu, Weather by CustomWeather, © 2016

Note: Actual official high and low records may vary slightly from our data, if they occured in-between our weather recording intervals... More about our weather records

Advertising

Corfu Weather History for the Previous 24 Hours

Scroll right to see more
 ConditionsComfort  
Time TempWeatherWind HumidityBarometerVisibility
11:20 PM
Wed, May 4
61 °FPassing clouds.8 mph77%29.83 "HgN/A
10:50 PM61 °FPassing clouds.14 mph77%29.83 "HgN/A
10:20 PM61 °FPassing clouds.8 mph77%29.83 "HgN/A
9:50 PM63 °FPassing clouds.15 mph73%29.80 "HgN/A
9:20 PM63 °FScattered clouds.15 mph68%29.80 "HgN/A
8:50 PM63 °FScattered clouds.12 mph68%29.80 "HgN/A
7:50 PM63 °FScattered clouds.16 mph64%29.77 "HgN/A
7:20 PM64 °FScattered clouds.17 mph60%29.77 "HgN/A
6:50 PM64 °FScattered clouds.17 mph60%29.77 "HgN/A
6:20 PM66 °FScattered clouds.15 mph56%29.77 "HgN/A
5:50 PM66 °FScattered clouds.15 mph56%29.77 "HgN/A
5:20 PM68 °FScattered clouds.17 mph49%29.77 "HgN/A
4:50 PM68 °FScattered clouds.14 mph49%29.77 "HgN/A
4:20 PM70 °FScattered clouds.17 mph50%29.77 "HgN/A
3:50 PM70 °FScattered clouds.17 mph50%29.77 "HgN/A
3:20 PM70 °FScattered clouds.16 mph50%29.77 "HgN/A
2:50 PM70 °FScattered clouds.16 mph50%29.77 "HgN/A
2:20 PM68 °FScattered clouds.16 mph49%29.77 "HgN/A
1:50 PM68 °FScattered clouds.12 mph49%29.77 "HgN/A
1:20 PM66 °FScattered clouds.9 mph52%29.77 "HgN/A
12:50 PM66 °FScattered clouds.8 mph52%29.77 "HgN/A
12:20 PM64 °FScattered clouds.9 mph56%29.77 "HgN/A
11:50 AM64 °FScattered clouds.12 mph56%29.77 "HgN/A
11:20 AM64 °FScattered clouds.13 mph64%29.77 "HgN/A
10:50 AM64 °FScattered clouds.9 mph64%29.77 "HgN/A
10:20 AM64 °FScattered clouds.9 mph73%29.77 "HgN/A
9:50 AM63 °FBroken clouds.5 mph73%29.77 "HgN/A
9:20 AM63 °FBroken clouds.No wind73%29.77 "HgN/A
8:50 AM61 °FBroken clouds.No wind77%29.77 "HgN/A
8:20 AM57 °FBroken clouds.3 mph88%29.74 "HgN/A
7:50 AM57 °FScattered clouds.3 mph88%29.74 "HgN/A
7:20 AM55 °FPassing clouds.No wind94%29.74 "HgN/A
6:50 AM55 °FPassing clouds.No wind94%29.74 "HgN/A
5:50 AM57 °FPassing clouds.5 mph88%29.74 "HgN/A
5:20 AM57 °FPassing clouds.7 mph77%29.74 "HgN/A
4:50 AM59 °FPassing clouds.13 mph72%29.74 "HgN/A
4:20 AM59 °FPassing clouds.14 mph72%29.74 "HgN/A
3:50 AM59 °FPassing clouds.9 mph72%29.74 "HgN/A
3:20 AM59 °FPassing clouds.9 mph72%29.74 "HgN/A
2:50 AM59 °FPassing clouds.12 mph72%29.74 "HgN/A
2:20 AM59 °FPassing clouds.12 mph72%29.77 "HgN/A
Weather by CustomWeather, © 2016

See weather overviewHow to use our weather pages